Location: Sihaung
(22.8641°N, 94.0549°E)
Time: 14:05:29
(UTC+00:00)

Cosmos 1745 Rocket - Pass Details

Date: 03 March 2021
Orbit: 954 x 997 km, 83.0° (Epoch: 10 April)

Event Time Altitude Azimuth Distance (km) Brightness Sun altitude
Rises 21:48:36 0° 360° (N) 3,690 7.1 -31.7°
Reaches altitude 10° 21:51:09 10° 3° (N) 2,745 6.4 -31.1°
Maximum altitude 21:57:24 65° 85° (E) 1,083 4.3 -29.7°
Drops below altitude 10° 22:03:40 10° 166° (SSE) 2,753 6.4 -28.2°
Sets 22:06:13 0° 169° (S) 3,701 7.1 -27.7°
